FW0069 Weather Reports


Display with metric or nautical units.
time (UTC)temp
F
wind
direction
speed
MPH
gust
MPH
rain 1hr
in
rain 24hr
in
rain mn
in
humidity
%
barometer
mb
20260831033552 88 360 0.0 4.0 0.00 0.00 0.00 18 1010.7
20260831033051 88 360 3.0 4.0 0.00 0.00 0.00 18 1010.5
20260831032551 88 360 1.0 3.0 0.00 0.00 0.00 18 1010.4
20260831032052 88 360 1.0 3.0 0.00 0.00 0.00 18 1010.3
20260831031551 89 360 2.0 3.0 0.00 0.00 0.00 18 1010.4
20260831031051 89 360 1.0 3.0 0.00 0.00 0.00 19 1010.3
20260831030051 90 360 1.0 1.0 0.00 0.00 0.00 18 1010.4
20260831025551 90 360 0.0 1.0 0.00 0.00 0.00 19 1010.3
20260831025052 90 360 0.0 2.0 0.00 0.00 0.00 18 1010.0
20260831024552 91 360 0.0 2.0 0.00 0.00 0.00 18 1010.1
20260831023551 91 360 0.0 4.0 0.00 0.00 0.00 17 1010.1
20260831023052 91 360 2.0 4.0 0.00 0.00 0.00 17 1010.0
20260831021551 92 360 1.0 4.0 0.00 0.00 0.00 17 1010.0
20260831020552 93 360 2.0 5.0 0.00 0.00 0.00 17 1010.1
20260831020051 93 360 3.0 5.0 0.00 0.00 0.00 17 1010.2
20260831015051 93 360 0.0 4.0 0.00 0.00 0.00 17 1009.9
20260831014552 93 360 0.0 4.0 0.00 0.00 0.00 17 1010.0
20260831014051 93 360 0.0 3.0 0.00 0.00 0.00 16 1010.0
20260831013551 94 360 0.0 4.0 0.00 0.00 0.00 17 1010.3
20260831013051 94 360 0.0 7.0 0.00 0.00 0.00 17 1010.1
20260831012552 94 360 1.0 7.0 0.00 0.00 0.00 16 1010.1
20260831012051 94 360 3.0 5.0 0.00 0.00 0.00 16 1010.0
20260831011051 94 360 1.0 5.0 0.00 0.00 0.00 17 1010.2
20260831010051 94 360 1.0 5.0 0.00 0.00 0.00 16 1010.3
20260831005051 94 360 0.0 7.0 0.00 0.00 0.00 17 1010.3
20260831004552 94 360 5.0 9.0 0.00 0.00 0.00 17 1010.4
20260831004051 94 360 1.0 10.0 0.00 0.00 0.00 16 1010.5
20260831003051 94 360 0.0 11.0 0.00 0.00 0.00 17 1010.4
20260831002551 94 360 1.0 7.0 0.00 0.00 0.00 17 1010.3
20260831002051 94 360 0.0 8.0 0.00 0.00 0.00 17 1010.3
20260831001551 94 360 5.0 9.0 0.00 0.00 0.00 17 1010.5
20260830235551 94 360 5.0 15.0 0.00 0.00 0.00 16 1010.4
20260830235051 94 360 2.0 15.0 0.00 0.00 0.00 16 1010.8
20260830234551 95 360 9.0 13.0 0.00 0.00 0.00 16 1011.0
20260830234051 95 360 5.0 13.0 0.00 0.00 0.00 16 1011.1
20260830233551 95 360 4.0 13.0 0.00 0.00 0.00 16 1011.1
20260830232551 94 360 5.0 10.0 0.00 0.00 0.00 16 1010.9
20260830231551 95 360 5.0 11.0 0.00 0.00 0.00 16 1011.1
20260830230551 94 360 2.0 10.0 0.00 0.00 0.00 17 1011.1
20260830230051 94 360 4.0 12.0 0.00 0.00 0.00 16 1011.3
20260830225551 94 360 6.0 12.0 0.00 0.00 0.00 16 1011.4
20260830224551 95 360 4.0 13.0 0.00 0.00 0.00 17 1011.7
20260830224051 95 360 4.0 13.0 0.00 0.00 0.00 16 1011.7
20260830223551 95 360 4.0 12.0 0.00 0.00 0.00 16 1011.7
20260830223051 95 277 5.0 13.0 0.00 0.00 0.00 16 1011.7
20260830222551 94 360 7.0 13.0 0.00 0.00 0.00 17 1011.7
20260830221551 94 360 8.0 10.0 0.00 0.00 0.00 17 1011.6
20260830221051 94 360 3.0 10.0 0.00 0.00 0.00 17 1011.7
20260830220551 94 360 6.0 11.0 0.00 0.00 0.00 17 1011.7
20260830220051 94 360 5.0 11.0 0.00 0.00 0.00 17 1011.8
20260830215051 94 360 2.0 13.0 0.00 0.00 0.00 17 1011.8
20260830214551 94 360 3.0 13.0 0.00 0.00 0.00 17 1011.8
20260830213551 94 360 5.0 14.0 0.00 0.00 0.00 17 1012.0
20260830213051 94 360 6.0 14.0 0.00 0.00 0.00 16 1012.1
20260830212551 94 360 7.0 13.0 0.00 0.00 0.00 17 1012.1
20260830212051 94 360 13.0 13.0 0.00 0.00 0.00 16 1012.2
20260830211051 95 360 6.0 12.0 0.00 0.00 0.00 16 1012.4
20260830210551 94 231 5.0 7.0 0.00 0.00 0.00 16 1012.2
20260830210051 95 194 2.0 9.0 0.00 0.00 0.00 15 1012.3
20260830205051 95 192 3.0 7.0 0.00 0.00 0.00 15 1012.3
20260830204551 95 223 2.0 16.0 0.00 0.00 0.00 16 1012.5
20260830204051 95 193 7.0 16.0 0.00 0.00 0.00 16 1012.6
20260830203551 94 219 5.0 13.0 0.00 0.00 0.00 16 1012.2
20260830203051 94 100 6.0 13.0 0.00 0.00 0.00 16 1012.4
20260830202551 94 187 4.0 11.0 0.00 0.00 0.00 17 1012.4
20260830202051 94 199 5.0 11.0 0.00 0.00 0.00 16 1012.6
20260830201551 94 167 5.0 12.0 0.00 0.00 0.00 17 1012.5
20260830201051 95 165 5.0 14.0 0.00 0.00 0.00 16 1012.7
20260830200551 95 181 5.0 14.0 0.00 0.00 0.00 16 1012.7
20260830200051 95 190 10.0 15.0 0.00 0.00 0.00 16 1012.6
20260830195551 96 186 9.0 15.0 0.00 0.00 0.00 16 1012.8
20260830195051 96 154 4.0 14.0 0.00 0.00 0.00 16 1012.7
20260830194551 97 165 4.0 14.0 0.00 0.00 0.00 15 1012.8
20260830194051 98 167 7.0 12.0 0.00 0.00 0.00 15 1012.8
20260830193621 98 158 4.0 15.0 0.00 0.00 0.00 15 1012.9
20260830193102 97 177 5.0 15.0 0.00 0.00 0.00 15 1013.0
20260830192101 97 138 5.0 14.0 0.00 0.00 0.00 15 1013.2
20260830191531 97 139 1.0 14.0 0.00 0.00 0.00 15 1013.2
20260830191101 99 158 5.0 10.0 0.00 0.00 0.00 15 1013.5
20260830190601 99 180 10.0 15.0 0.00 0.00 0.00 15 1013.3
20260830185531 98 164 6.0 18.0 0.00 0.00 0.00 15 1013.4
20260830185032 99 182 7.0 12.0 0.00 0.00 0.00 15 1013.4
20260830184601 99 188 2.0 12.0 0.00 0.00 0.00 15 1013.4
20260830183601 98 199 6.0 11.0 0.00 0.00 0.00 15 1013.5
20260830183032 97 197 7.0 12.0 0.00 0.00 0.00 15 1013.3
20260830182531 97 202 7.0 14.0 0.00 0.00 0.00 15 1013.3
20260830182101 97 202 7.0 18.0 0.00 0.00 0.00 15 1013.3
20260830181032 96 148 6.0 16.0 0.00 0.00 0.00 16 1013.3
20260830180532 96 110 8.0 11.0 0.00 0.00 0.00 16 1013.4
20260830175531 95 215 3.0 13.0 0.00 0.00 0.00 16 1013.3
20260830175101 95 179 6.0 11.0 0.00 0.00 0.00 16 1013.2
20260830174601 95 173 2.0 9.0 0.00 0.00 0.00 16 1013.4
20260830173531 94 179 6.0 14.0 0.00 0.00 0.00 16 1013.1
20260830173031 95 142 6.0 14.0 0.00 0.00 0.00 17 1013.3
20260830172102 94 157 5.0 12.0 0.00 0.00 0.00 17 1012.9
20260830170532 93 165 6.0 18.0 0.00 0.00 0.00 17 1012.9
20260830170101 92 192 7.0 12.0 0.00 0.00 0.00 18 1012.8
20260830165531 92 174 4.0 12.0 0.00 0.00 0.00 18 1012.8
20260830165101 91 166 6.0 11.0 0.00 0.00 0.00 18 1012.7
20260830164531 91 153 2.0 11.0 0.00 0.00 0.00 18 1012.9
20260830163601 90 178 5.0 10.0 0.00 0.00 0.00 19 1012.5
20260830163101 90 182 4.0 10.0 0.00 0.00 0.00 19 1012.6
20260830162601 90 165 6.0 10.0 0.00 0.00 0.00 19 1012.6
20260830162101 90 149 4.0 11.0 0.00 0.00 0.00 19 1012.5
20260830161531 90 180 4.0 11.0 0.00 0.00 0.00 19 1012.5
20260830160601 90 151 3.0 10.0 0.00 0.00 0.00 19 1012.4
20260830155601 90 198 4.0 11.0 0.00 0.00 0.00 19 1012.6
20260830155031 89 186 5.0 14.0 0.00 0.00 0.00 20 1012.8
20260830154601 89 182 7.0 14.0 0.00 0.00 0.00 20 1012.7
20260830153531 89 186 4.0 9.0 0.00 0.00 0.00 20 1012.9
20260830153031 89 140 4.0 7.0 0.00 0.00 0.00 20 1012.7
20260830152601 89 121 2.0 7.0 0.00 0.00 0.00 20 1012.7
20260830151601 89 94 6.0 9.0 0.00 0.00 0.00 20 1012.6
20260830151031 89 119 4.0 9.0 0.00 0.00 0.00 21 1012.5
20260830150531 89 56 6.0 9.0 0.00 0.00 0.00 22 1012.5
20260830150101 88 94 6.0 9.0 0.00 0.00 0.00 21 1012.3
20260830145531 88 360 5.0 9.0 0.00 0.00 0.00 22 1012.5
20260830145101 88 360 4.0 8.0 0.00 0.00 0.00 22 1012.6
20260830144601 88 360 3.0 9.0 0.00 0.00 0.00 22 1012.5
20260830143031 87 360 2.0 11.0 0.00 0.00 0.00 23 1012.6
20260830142531 87 360 3.0 11.0 0.00 0.00 0.00 23 1012.6
20260830142031 87 360 4.0 12.0 0.00 0.00 0.00 24 1012.5
20260830141031 87 360 5.0 8.0 0.00 0.00 0.00 25 1012.4
20260830140531 86 360 5.0 8.0 0.00 0.00 0.00 24 1012.3
20260830140101 86 360 5.0 7.0 0.00 0.00 0.00 24 1012.3
20260830135531 85 69 4.0 10.0 0.00 0.00 0.00 24 1012.1
20260830135031 85 136 1.0 10.0 0.00 0.00 0.00 24 1012.1
20260830134531 85 140 2.0 9.0 0.00 0.00 0.00 26 1012.2
20260830134031 85 82 3.0 9.0 0.00 0.00 0.00 26 1012.0
20260830133601 85 77 3.0 7.0 0.00 0.00 0.00 26 1011.8
20260830133031 86 65 1.0 8.0 0.00 0.00 0.00 26 1011.9
20260830132601 86 103 2.0 8.0 0.00 0.00 0.00 26 1011.9
20260830131601 86 144 3.0 6.0 0.00 0.00 0.00 25 1011.6
20260830130601 86 126 5.0 11.0 0.00 0.00 0.00 25 1011.6
20260830130101 86 155 2.0 11.0 0.00 0.00 0.00 25 1011.5
20260830125031 86 107 7.0 10.0 0.00 0.00 0.00 25 1011.6
20260830124531 86 114 4.0 11.0 0.00 0.00 0.00 25 1011.6
20260830124031 86 113 8.0 11.0 0.00 0.00 0.00 25 1011.6
20260830123601 86 98 5.0 9.0 0.00 0.00 0.00 25 1011.5
20260830123031 86 84 5.0 7.0 0.00 0.00 0.00 25 1011.4
20260830122601 87 82 3.0 9.0 0.00 0.00 0.00 25 1011.3
20260830122101 87 121 1.0 9.0 0.00 0.00 0.00 25 1011.1
20260830121031 87 144 2.0 8.0 0.00 0.00 0.00 25 1011.0
20260830120601 87 116 1.0 5.0 0.00 0.00 0.00 25 1011.0
20260830120101 87 77 2.0 5.0 0.00 0.00 0.00 24 1010.9
20260830115601 87 138 1.0 4.0 0.00 0.00 0.00 23 1010.9
20260830115101 87 138 0.0 5.0 0.00 0.00 0.00 24 1010.8
20260830114531 87 138 1.0 8.0 0.00 0.00 0.00 23 1010.8
20260830114031 87 175 0.0 8.0 0.00 0.00 0.00 23 1010.9
20260830113531 87 128 8.0 9.0 0.00 0.00 0.00 24 1010.8
20260830113101 87 141 2.0 9.0 0.00 0.00 0.00 24 1010.9
20260830112531 88 150 3.0 8.0 0.00 0.00 0.00 24 1010.9
20260830112101 88 170 3.0 6.0 0.00 0.00 0.00 23 1011.1
20260830111600 88 159 2.0 8.0 0.00 0.00 0.00 23 1011.1
20260830110531 88 128 2.0 7.0 0.00 0.00 0.00 21 1010.9
20260830110100 89 173 3.0 7.0 0.00 0.00 0.00 21 1011.0
20260830105531 89 173 2.0 11.0 0.00 0.00 0.00 20 1011.0
20260830105031 89 198 7.0 11.0 0.00 0.00 0.00 20 1010.9
20260830104530 89 264 6.0 9.0 0.00 0.00 0.00 20 1010.7
20260830104031 89 211 6.0 10.0 0.00 0.00 0.00 20 1010.9
20260830103101 89 240 4.0 12.0 0.00 0.00 0.00 20 1010.8
20260830102531 89 253 2.0 13.0 0.00 0.00 0.00 20 1010.9
20260830102030 89 211 9.0 13.0 0.00 0.00 0.00 20 1010.9
20260830101531 89 238 0.0 9.0 0.00 0.00 0.00 20 1010.8
20260830101100 89 271 8.0 9.0 0.00 0.00 0.00 20 1010.7
20260830100600 89 153 4.0 5.0 0.00 0.00 0.00 20 1010.6
20260830100101 89 74 1.0 5.0 0.00 0.00 0.00 20 1010.7
20260830095531 89 41 2.0 8.0 0.00 0.00 0.00 20 1010.8
20260830095031 89 35 0.0 8.0 0.00 0.00 0.00 20 1010.8
20260830094601 89 43 4.0 7.0 0.00 0.00 0.00 20 1010.6
20260830094101 89 114 3.0 5.0 0.00 0.00 0.00 20 1010.7
20260830093600 90 114 2.0 4.0 0.00 0.00 0.00 20 1010.7
20260830092600 89 250 0.0 7.0 0.00 0.00 0.00 21 1010.4
20260830092031 89 300 5.0 8.0 0.00 0.00 0.00 21 1010.5
20260830091531 89 222 2.0 8.0 0.00 0.00 0.00 21 1010.4
20260830085531 90 211 2.0 2.0 0.00 0.00 0.00 21 1010.4
20260830085030 90 211 0.0 3.0 0.00 0.00 0.00 21 1010.4
20260830084530 90 211 0.0 7.0 0.00 0.00 0.00 20 1010.4
20260830084031 90 211 3.0 7.0 0.00 0.00 0.00 20 1010.4
20260830083531 90 251 6.0 10.0 0.00 0.00 0.00 20 1010.6
20260830082530 90 171 8.0 8.0 0.00 0.00 0.00 20 1010.5
20260830082100 91 243 0.0 3.0 0.00 0.00 0.00 20 1010.7
20260830081530 91 284 0.0 3.0 0.00 0.00 0.00 19 1010.7
20260830081030 91 284 0.0 6.0 0.00 0.00 0.00 19 1010.9
20260830080030 91 13 4.0 6.0 0.00 0.00 0.00 18 1010.8
20260830075530 91 314 2.0 9.0 0.00 0.00 0.00 18 1010.6
20260830074601 91 360 7.0 7.0 0.00 0.00 0.00 19 1010.6
20260830074101 92 259 2.0 8.0 0.00 0.00 0.00 19 1010.7
20260830073600 92 260 0.0 11.0 0.00 0.00 0.00 20 1010.8
20260830073031 92 259 6.0 11.0 0.00 0.00 0.00 20 1010.7
20260830072601 92 326 6.0 6.0 0.00 0.00 0.00 20 1010.8
20260830072100 92 296 2.0 4.0 0.00 0.00 0.00 20 1010.7
20260830071530 92 339 4.0 4.0 0.00 0.00 0.00 21 1010.9
20260830071100 92 87 3.0 5.0 0.00 0.00 0.00 21 1010.7
20260830070600 92 87 3.0 5.0 0.00 0.00 0.00 20 1010.9
20260830065601 92 17 2.0 7.0 0.00 0.00 0.00 20 1010.7
20260830065100 93 170 3.0 9.0 0.00 0.00 0.00 20 1010.8
20260830064601 93 221 3.0 13.0 0.00 0.00 0.00 21 1010.7
20260830064101 93 191 9.0 13.0 0.00 0.00 0.00 20 1010.8
20260830063600 93 182 9.0 14.0 0.00 0.00 0.00 21 1010.8
20260830063100 93 226 5.0 14.0 0.00 0.00 0.00 21 1010.7
20260830062601 93 207 2.0 11.0 0.00 0.00 0.00 21 1010.6
20260830062100 93 231 6.0 7.0 0.00 0.00 0.00 21 1010.7
20260830061600 93 239 4.0 12.0 0.00 0.00 0.00 22 1010.6
20260830061100 93 252 4.0 12.0 0.00 0.00 0.00 22 1010.6
20260830060600 93 260 5.0 12.0 0.00 0.00 0.00 22 1010.7
20260830060100 93 265 5.0 17.0 0.00 0.00 0.00 22 1010.6
20260830055600 93 267 7.0 17.0 0.00 0.00 0.00 21 1010.5
20260830055100 93 236 10.0 12.0 0.00 0.00 0.00 21 1010.6
20260830054601 93 236 6.0 14.0 0.00 0.00 0.00 21 1010.6
20260830054100 93 222 3.0 17.0 0.00 0.00 0.00 21 1010.6
20260830053600 93 258 9.0 18.0 0.00 0.00 0.00 22 1010.6
20260830053100 93 208 5.0 18.0 0.00 0.00 0.00 22 1010.5
20260830052601 93 246 13.0 13.0 0.00 0.00 0.00 22 1010.6
20260830052100 93 232 5.0 13.0 0.00 0.00 0.00 22 1010.6
20260830051601 93 228 6.0 13.0 0.00 0.00 0.00 22 1010.7
20260830051100 93 223 4.0 11.0 0.00 0.00 0.00 22 1010.7
20260830050100 93 244 1.0 3.0 0.00 0.00 0.00 23 1010.8
20260830045601 93 244 2.0 7.0 0.00 0.00 0.00 22 1010.7
20260830045100 93 244 1.0 8.0 0.00 0.00 0.00 22 1010.8
20260830044600 94 178 1.0 8.0 0.00 0.00 0.00 22 1011.0
20260830044100 94 200 0.0 2.0 0.00 0.00 0.00 22 1010.9
20260830043100 94 199 0.0 4.0 0.00 0.00 0.00 22 1011.0
20260830042100 94 199 3.0 8.0 0.00 0.00 0.00 21 1011.1
20260830041601 94 200 3.0 8.0 0.00 0.00 0.00 21 1011.0
20260830041100 94 193 3.0 8.0 0.00 0.00 0.00 21 1010.9
20260830040601 95 360 2.0 6.0 0.00 0.00 0.00 21 1011.0
20260830040100 95 360 2.0 6.0 0.00 0.00 0.00 21 1010.9
20260830035600 95 360 1.0 6.0 0.00 0.00 0.00 20 1010.6
20260830035100 95 360 5.0 7.0 0.00 0.00 0.00 20 1010.5
20260830034600 95 360 4.0 7.0 0.00 0.00 0.00 20 1010.6
20260830034101 96 360 0.0 5.0 0.00 0.00 0.00 20 1010.4